EW6756 Weather Reports


Display with metric or nautical units.
time (UTC)temp
F
wind
direction
speed
MPH
gust
MPH
rain 1hr
in
rain 24hr
in
rain mn
in
humidity
%
barometer
mb
20260510102003 60 11 1.0 5.0 0.00 0.00 0.00 63 1013.5
20260510101503 60 13 1.0 5.0 0.00 0.00 0.00 63 1013.8
20260510101003 59 10 0.0 4.0 0.00 0.00 0.00 63 1013.8
20260510100503 59 10 0.0 4.0 0.00 0.00 0.00 63 1013.8
20260510100217 59 11 0.0 4.0 0.00 0.00 0.00 63 1013.8
20260510095503 59 11 0.0 3.0 0.00 0.00 0.00 63 1013.6
20260510095003 59 11 0.0 1.0 0.00 0.00 0.00 63 1013.8
20260510094503 59 12 0.0 3.0 0.00 0.00 0.00 63 1013.9
20260510094003 59 15 1.0 4.0 0.00 0.00 0.00 63 1014.0
20260510093503 59 14 0.0 4.0 0.00 0.00 0.00 63 1013.9
20260510093216 59 15 0.0 4.0 0.00 0.00 0.00 63 1013.9
20260510092717 59 12 0.0 3.0 0.00 0.00 0.00 63 1013.9
20260510092003 59 16 0.0 3.0 0.00 0.00 0.00 63 1014.0
20260510091503 59 17 0.0 1.0 0.00 0.00 0.00 64 1014.2
20260510091003 59 13 0.0 1.0 0.00 0.00 0.00 64 1014.2
20260510090503 58 8 0.0 3.0 0.00 0.00 0.00 65 1014.1
20260510090003 58 10 0.0 3.0 0.00 0.00 0.00 65 1014.3
20260510085503 59 10 0.0 3.0 0.00 0.00 0.00 66 1014.4
20260510085003 58 9 0.0 3.0 0.00 0.00 0.00 67 1014.2
20260510084503 58 12 0.0 3.0 0.00 0.00 0.00 66 1014.3
20260510084003 58 15 0.0 1.0 0.00 0.00 0.00 64 1014.3
20260510083503 58 14 0.0 1.0 0.00 0.00 0.00 65 1014.2
20260510083218 58 20 0.0 1.0 0.00 0.00 0.00 65 1014.2
20260510082503 58 0 0.0 1.0 0.00 0.00 0.00 65 1014.4
20260510082003 58 16 0.0 1.0 0.00 0.00 0.00 65 1014.3
20260510081503 58 15 1.0 3.0 0.00 0.00 0.00 66 1014.3
20260510081003 57 15 1.0 3.0 0.00 0.00 0.00 66 1014.5
20260510080503 57 17 1.0 3.0 0.00 0.00 0.00 67 1014.2
20260510080003 57 17 0.0 1.0 0.00 0.00 0.00 67 1014.6
20260510075503 57 18 0.0 3.0 0.00 0.00 0.00 67 1014.4
20260510075003 57 18 0.0 3.0 0.00 0.00 0.00 69 1014.5
20260510074503 57 18 0.0 3.0 0.00 0.00 0.00 69 1014.5
20260510074003 57 18 0.0 3.0 0.00 0.00 0.00 69 1014.6
20260510073503 56 18 0.0 3.0 0.00 0.00 0.00 69 1014.4
20260510073003 56 0 0.0 0.0 0.00 0.00 0.00 70 1014.4
20260510072503 56 0 0.0 0.0 0.00 0.00 0.00 70 1014.7
20260510072003 56 0 0.0 0.0 0.00 0.00 0.00 70 1014.7
20260510071503 56 17 0.0 1.0 0.00 0.00 0.00 71 1014.6
20260510071003 56 17 0.0 1.0 0.00 0.00 0.00 71 1014.8
20260510070503 55 18 0.0 1.0 0.00 0.00 0.00 71 1014.6
20260510070218 55 19 0.0 1.0 0.00 0.00 0.00 72 1014.7
20260510065503 55 0 0.0 0.0 0.00 0.00 0.00 72 1014.7
20260510065003 55 0 0.0 0.0 0.00 0.00 0.00 73 1014.8
20260510064503 55 0 0.0 0.0 0.00 0.00 0.00 73 1014.7
20260510064003 55 0 0.0 0.0 0.00 0.00 0.00 73 1014.8
20260510063503 54 0 0.0 0.0 0.00 0.00 0.00 73 1014.6
20260510063003 54 0 0.0 0.0 0.00 0.00 0.00 73 1014.7
20260510062503 54 0 0.0 0.0 0.00 0.00 0.00 73 1014.7
20260510062003 54 0 0.0 0.0 0.00 0.00 0.00 73 1014.6
20260510061503 54 0 0.0 0.0 0.00 0.00 0.00 73 1014.8
20260510061217 54 0 0.0 0.0 0.00 0.00 0.00 73 1014.7
20260510060503 53 0 0.0 0.0 0.00 0.00 0.00 74 1014.6
20260510060003 53 0 0.0 0.0 0.00 0.00 0.00 74 1014.6
20260510055503 53 0 0.0 0.0 0.00 0.00 0.00 74 1015.0
20260510055003 53 0 0.0 0.0 0.00 0.00 0.00 74 1014.8
20260510054503 53 0 0.0 0.0 0.00 0.00 0.00 74 1014.7
20260510054217 53 0 0.0 0.0 0.00 0.00 0.00 74 1014.7
20260510053503 53 0 0.0 0.0 0.00 0.00 0.00 74 1014.6
20260510053003 53 0 0.0 0.0 0.00 0.00 0.00 74 1014.8
20260510052503 53 0 0.0 0.0 0.00 0.00 0.00 74 1014.7
20260510052003 53 0 0.0 0.0 0.00 0.00 0.00 73 1014.8
20260510051503 53 20 0.0 3.0 0.00 0.00 0.00 73 1014.7
20260510051003 53 19 1.0 3.0 0.00 0.00 0.00 73 1014.8
20260510050503 52 18 0.0 3.0 0.00 0.00 0.00 73 1014.7
20260510050217 52 17 0.0 3.0 0.00 0.00 0.00 73 1014.5
20260510045503 52 18 0.0 1.0 0.00 0.00 0.00 73 1014.8
20260510045003 52 17 0.0 1.0 0.00 0.00 0.00 73 1014.7
20260510044503 52 16 0.0 1.0 0.00 0.00 0.00 73 1014.7
20260510044217 52 16 0.0 1.0 0.00 0.00 0.00 73 1014.8
20260510043503 52 17 0.0 3.0 0.00 0.00 0.00 73 1014.8
20260510043217 52 20 0.0 3.0 0.00 0.00 0.00 73 1014.7
20260510042503 52 20 1.0 3.0 0.00 0.00 0.00 73 1014.7
20260510042003 52 19 1.0 3.0 0.00 0.00 0.00 73 1014.7
20260510041503 52 19 0.0 1.0 0.00 0.00 0.00 73 1015.1
20260510041003 52 17 0.0 1.0 0.00 0.00 0.00 73 1015.1
20260510040503 52 16 0.0 1.0 0.00 0.00 0.00 73 1014.9
20260510040216 52 16 0.0 1.0 0.00 0.00 0.00 73 1015.1
20260510035503 52 18 0.0 1.0 0.00 0.00 0.00 73 1015.0
20260510035003 52 17 0.0 1.0 0.00 0.00 0.00 73 1015.1
20260510034503 52 17 0.0 1.0 0.00 0.00 0.00 73 1015.2
20260510034003 52 17 0.0 1.0 0.00 0.00 0.00 74 1015.1
20260510033503 52 0 0.0 0.0 0.00 0.00 0.00 73 1015.2
20260510033003 52 0 0.0 0.0 0.00 0.00 0.00 73 1015.3
20260510032717 52 0 0.0 0.0 0.00 0.00 0.00 73 1015.3
20260510032218 52 0 0.0 0.0 0.00 0.00 0.00 72 1015.6
20260510031503 52 0 0.0 0.0 0.00 0.00 0.00 72 1015.6
20260510031003 52 0 0.0 0.0 0.00 0.00 0.00 72 1015.7
20260510030503 53 0 0.0 0.0 0.00 0.00 0.00 71 1015.6
20260510030003 53 0 0.0 1.0 0.00 0.00 0.00 71 1015.8
20260510025717 53 21 0.0 3.0 0.00 0.00 0.00 71 1015.7
20260510025218 53 19 0.0 3.0 0.00 0.00 0.00 70 1015.8
20260510024503 53 18 0.0 3.0 0.00 0.00 0.00 70 1015.7
20260510024218 53 18 0.0 1.0 0.00 0.00 0.00 70 1015.7
20260510023503 53 16 0.0 1.0 0.00 0.00 0.00 70 1015.8
20260510023003 53 16 0.0 1.0 0.00 0.00 0.00 70 1016.0
20260510022503 53 19 0.0 3.0 0.00 0.00 0.00 70 1015.8
20260510022003 53 17 0.0 3.0 0.00 0.00 0.00 69 1015.8
20260510021503 53 15 0.0 1.0 0.00 0.00 0.00 69 1016.0
20260510021003 53 18 0.0 1.0 0.00 0.00 0.00 69 1016.0
20260510020503 53 17 0.0 1.0 0.00 0.00 0.00 69 1016.0
20260510020003 53 17 0.0 1.0 0.00 0.00 0.00 69 1016.1
20260510015503 53 19 0.0 1.0 0.00 0.00 0.00 70 1016.1
20260510015218 53 20 0.0 1.0 0.00 0.00 0.00 70 1016.1
20260510014503 53 22 0.0 3.0 0.00 0.00 0.00 69 1016.0
20260510014003 53 23 0.0 3.0 0.00 0.00 0.00 69 1016.0
20260510013503 53 31 0.0 3.0 0.00 0.00 0.00 69 1016.3
20260510013003 53 94 0.0 4.0 0.00 0.00 0.00 69 1016.3
20260510012503 53 129 0.0 4.0 0.00 0.00 0.00 69 1016.1
20260510012003 53 130 0.0 4.0 0.00 0.00 0.00 69 1016.2
20260510011716 53 103 0.0 3.0 0.00 0.00 0.00 69 1016.2
20260510011003 53 53 0.0 3.0 0.00 0.00 0.00 69 1016.2
20260510010503 53 72 0.0 3.0 0.00 0.00 0.00 69 1016.0
20260510010003 53 78 0.0 3.0 0.00 0.00 0.00 69 1016.2
20260510005503 53 75 0.0 3.0 0.00 0.00 0.00 69 1016.0
20260510005217 53 77 0.0 1.0 0.00 0.00 0.00 69 1016.2
20260510004503 53 51 0.0 1.0 0.00 0.00 0.00 69 1016.5
20260510004003 53 55 0.0 3.0 0.00 0.00 0.00 69 1016.3
20260510003503 53 66 0.0 3.0 0.00 0.00 0.00 69 1016.4
20260510003003 53 73 0.0 3.0 0.00 0.00 0.00 69 1016.5
20260510002718 53 63 0.0 3.0 0.00 0.00 0.00 69 1016.4
20260510002003 53 59 0.0 3.0 0.00 0.00 0.00 69 1016.5
20260510001503 53 53 0.0 1.0 0.00 0.00 0.00 69 1016.7
20260510001003 53 46 0.0 1.0 0.00 0.00 0.00 69 1016.8
20260510000503 53 80 0.0 1.0 0.00 0.00 0.00 69 1016.8
20260510000003 54 63 0.0 1.0 0.00 0.00 0.00 69 1017.2
20260509235718 53 58 0.0 3.0 0.00 0.00 0.00 69 1016.9
20260509235003 53 67 0.0 3.0 0.00 0.00 0.00 69 1017.1
20260509234503 53 0 0.0 0.0 0.00 0.00 0.00 69 1017.2
20260509234003 53 0 0.0 0.0 0.00 0.00 0.00 69 1017.3
20260509233718 53 0 0.0 0.0 0.00 0.00 0.00 70 1017.1
20260509233003 53 28 0.0 1.0 0.00 0.00 0.00 70 1017.1
20260509232503 53 28 0.0 1.0 0.00 0.00 0.00 70 1017.3
20260509232003 53 34 0.0 1.0 0.00 0.00 0.00 70 1017.4
20260509231718 53 36 0.0 1.0 0.00 0.00 0.00 69 1017.6
20260509231003 53 41 0.0 1.0 0.00 0.00 0.00 69 1017.5
20260509230718 53 0 0.0 0.0 0.00 0.00 0.00 69 1017.3
20260509230003 53 0 0.0 1.0 0.00 0.00 0.00 68 1017.6
20260509225717 53 46 0.0 1.0 0.00 0.00 0.00 68 1017.6
20260509225003 53 49 0.0 1.0 0.00 0.00 0.00 68 1017.6
20260509224717 53 58 0.0 1.0 0.00 0.00 0.00 68 1017.7
20260509224003 53 72 0.0 1.0 0.00 0.00 0.00 68 1017.6
20260509223503 53 70 0.0 1.0 0.00 0.00 0.00 67 1017.8
20260509223003 54 0 0.0 0.0 0.00 0.00 0.00 67 1017.7
20260509222503 54 73 0.0 1.0 0.00 0.00 0.00 66 1017.8
20260509222218 54 63 0.0 1.0 0.00 0.00 0.00 66 1017.9
20260509221503 55 58 0.0 3.0 0.00 0.00 0.00 66 1017.8
20260509221004 55 54 0.0 3.0 0.00 0.00 0.00 66 1017.8
20260509220503 55 48 0.0 1.0 0.00 0.00 0.00 66 1017.9
20260509220003 55 51 0.0 1.0 0.00 0.00 0.00 66 1017.7
20260509215717 55 34 0.0 1.0 0.00 0.00 0.00 66 1018.0
20260509215003 55 0 0.0 0.0 0.00 0.00 0.00 66 1018.0
20260509214503 55 0 0.0 0.0 0.00 0.00 0.00 66 1018.1
20260509214003 55 0 0.0 0.0 0.00 0.00 0.00 66 1018.2
20260509213503 55 0 0.0 0.0 0.00 0.00 0.00 66 1018.2
20260509213003 55 0 0.0 0.0 0.00 0.00 0.00 66 1018.2
20260509212503 55 0 0.0 0.0 0.00 0.00 0.00 66 1018.2
20260509212003 56 0 0.0 0.0 0.00 0.00 0.00 65 1018.1
20260509211503 56 0 0.0 0.0 0.00 0.00 0.00 65 1018.2
20260509211003 56 0 0.0 0.0 0.00 0.00 0.00 65 1018.1
20260509210717 56 0 0.0 0.0 0.00 0.00 0.00 65 1017.9
20260509210003 56 130 0.0 1.0 0.00 0.00 0.00 65 1018.1
20260509205503 56 130 0.0 1.0 0.00 0.00 0.00 64 1018.3
20260509205003 56 0 0.0 0.0 0.00 0.00 0.00 63 1018.4
20260509204503 57 0 0.0 0.0 0.00 0.00 0.00 63 1018.3
20260509204218 57 0 0.0 0.0 0.00 0.00 0.00 63 1018.4
20260509203717 57 157 0.0 1.0 0.00 0.00 0.00 62 1018.5
20260509203003 57 156 0.0 1.0 0.00 0.00 0.00 62 1018.5
20260509202503 57 155 0.0 1.0 0.00 0.00 0.00 62 1018.3
20260509202003 57 150 0.0 1.0 0.00 0.00 0.00 62 1018.6
20260509201503 57 147 0.0 1.0 0.00 0.00 0.00 62 1018.4
20260509201217 57 148 0.0 1.0 0.00 0.00 0.00 62 1018.6
20260509200503 57 147 0.0 1.0 0.00 0.00 0.00 62 1018.4
20260509200217 57 147 0.0 1.0 0.00 0.00 0.00 62 1018.5
20260509195503 57 0 0.0 0.0 0.00 0.00 0.00 62 1018.4
20260509195003 57 0 0.0 0.0 0.00 0.00 0.00 61 1018.3
20260509194503 57 0 0.0 0.0 0.00 0.00 0.00 61 1018.4
20260509194003 57 0 0.0 0.0 0.00 0.00 0.00 61 1018.5
20260509193503 57 0 0.0 0.0 0.00 0.00 0.00 60 1018.3
20260509193008 58 0 0.0 0.0 0.00 0.00 0.00 60 1018.2
20260509192503 58 0 0.0 0.0 0.00 0.00 0.00 60 1018.3
20260509192003 58 0 0.0 0.0 0.00 0.00 0.00 59 1018.0
20260509191503 58 0 0.0 0.0 0.00 0.00 0.00 59 1018.1
20260509191003 58 0 0.0 0.0 0.00 0.00 0.00 59 1018.1
20260509190503 58 0 0.0 0.0 0.00 0.00 0.00 58 1018.1
20260509190003 58 206 0.0 1.0 0.00 0.00 0.00 58 1018.1
20260509185503 58 194 0.0 4.0 0.00 0.00 0.00 57 1017.9
20260509185003 58 186 0.0 4.0 0.00 0.00 0.00 57 1018.0
20260509184503 59 170 0.0 1.0 0.00 0.00 0.00 56 1018.0
20260509184003 59 202 0.0 4.0 0.00 0.00 0.00 56 1018.0
20260509183503 59 202 1.0 4.0 0.00 0.00 0.00 55 1018.1
20260509183003 59 188 1.0 4.0 0.00 0.00 0.00 55 1017.9
20260509182503 59 178 1.0 4.0 0.00 0.00 0.00 55 1018.0
20260509182003 59 180 0.0 3.0 0.00 0.00 0.00 54 1017.7
20260509181503 59 164 0.0 5.0 0.00 0.00 0.00 54 1017.6
20260509181003 60 175 1.0 5.0 0.00 0.00 0.00 54 1017.7
20260509180503 60 195 0.0 4.0 0.00 0.00 0.00 53 1017.7
20260509180003 60 191 0.0 5.0 0.00 0.00 0.00 54 1017.8
20260509175503 60 188 1.0 5.0 0.00 0.00 0.00 53 1017.5
20260509175003 60 196 1.0 5.0 0.00 0.00 0.00 53 1017.7
20260509174503 60 215 1.0 3.0 0.00 0.00 0.00 52 1017.5
20260509174003 60 216 1.0 3.0 0.00 0.00 0.00 52 1017.6
20260509173503 60 202 1.0 3.0 0.00 0.00 0.00 52 1017.6
20260509173003 60 201 1.0 4.0 0.00 0.00 0.00 52 1017.5
20260509172503 61 187 1.0 4.0 0.00 0.00 0.00 52 1017.8
20260509172003 60 181 1.0 4.0 0.00 0.00 0.00 52 1017.8
20260509171717 61 220 1.0 5.0 0.00 0.00 0.00 51 1017.8
20260509171003 61 192 2.0 7.0 0.00 0.00 0.00 51 1017.8
20260509170503 61 188 2.0 7.0 0.00 0.00 0.00 51 1017.8
20260509170003 61 197 2.0 7.0 0.00 0.00 0.00 51 1017.8
20260509165717 61 197 2.0 8.0 0.00 0.00 0.00 51 1017.8
20260509165003 61 201 2.0 8.0 0.00 0.00 0.00 51 1017.6
20260509164003 62 197 2.0 8.0 0.00 0.00 0.00 50 1017.8
20260509163503 62 220 2.0 8.0 0.00 0.00 0.00 50 1018.0
20260509163003 62 183 2.0 8.0 0.00 0.00 0.00 50 1017.8
20260509162503 62 192 2.0 8.0 0.00 0.00 0.00 50 1017.8
20260509162003 62 203 1.0 8.0 0.00 0.00 0.00 49 1017.9
20260509161503 62 209 1.0 5.0 0.00 0.00 0.00 49 1018.0
20260509161003 62 221 1.0 5.0 0.00 0.00 0.00 49 1017.9
20260509160503 61 198 1.0 5.0 0.00 0.00 0.00 49 1018.1
20260509160003 61 178 1.0 5.0 0.00 0.00 0.00 49 1018.2
20260509155503 62 177 1.0 7.0 0.00 0.00 0.00 48 1018.2
20260509155218 62 181 1.0 7.0 0.00 0.00 0.00 48 1018.2
20260509154503 62 147 1.0 7.0 0.00 0.00 0.00 48 1018.1
20260509154003 62 140 2.0 11.0 0.00 0.00 0.00 47 1018.2
20260509153503 62 149 2.0 11.0 0.00 0.00 0.00 47 1018.3
20260509153003 63 171 2.0 8.0 0.00 0.00 0.00 46 1018.2
20260509152503 63 200 3.0 8.0 0.00 0.00 0.00 46 1018.4
20260509152003 63 173 3.0 10.0 0.00 0.00 0.00 46 1018.5
20260509151503 63 152 3.0 10.0 0.00 0.00 0.00 46 1018.5
20260509151217 63 171 3.0 10.0 0.00 0.00 0.00 45 1018.4
20260509150503 64 224 2.0 7.0 0.00 0.00 0.00 46 1018.4
20260509150003 64 220 2.0 8.0 0.00 0.00 0.00 45 1018.5
20260509145503 64 216 2.0 8.0 0.00 0.00 0.00 45 1018.5
20260509145003 64 217 3.0 8.0 0.00 0.00 0.00 45 1018.6
20260509144716 64 207 3.0 11.0 0.00 0.00 0.00 45 1018.5
20260509144217 64 193 3.0 11.0 0.00 0.00 0.00 45 1018.6
20260509143716 64 178 3.0 11.0 0.00 0.00 0.00 45 1018.6
20260509143217 64 163 3.0 8.0 0.00 0.00 0.00 45 1018.8
20260509142503 65 156 3.0 10.0 0.00 0.00 0.00 45 1018.8
20260509142217 65 146 3.0 10.0 0.00 0.00 0.00 45 1018.5
20260509141503 65 52 2.0 8.0 0.00 0.00 0.00 45 1018.7
20260509141003 65 48 2.0 5.0 0.00 0.00 0.00 45 1018.8
20260509140503 65 176 3.0 8.0 0.00 0.00 0.00 45 1019.0
20260509140221 64 171 2.0 10.0 0.00 0.00 0.00 45 1019.0
20260509135503 64 99 2.0 10.0 0.00 0.00 0.00 45 1018.9
20260509135003 64 308 2.0 8.0 0.00 0.00 0.00 46 1019.2
20260509134503 64 239 2.0 7.0 0.00 0.00 0.00 46 1019.0
20260509134003 64 185 1.0 7.0 0.00 0.00 0.00 46 1019.3
20260509133503 64 105 2.0 7.0 0.00 0.00 0.00 46 1019.5
20260509133004 63 74 1.0 5.0 0.00 0.00 0.00 47 1019.4
20260509132503 63 41 1.0 11.0 0.00 0.00 0.00 46 1019.5
20260509132003 63 56 3.0 16.0 0.00 0.00 0.00 47 1019.5
20260509131503 62 55 4.0 16.0 0.00 0.00 0.00 48 1019.7
20260509131003 62 38 3.0 16.0 0.00 0.00 0.00 46 1019.6
20260509130503 62 25 2.0 8.0 0.00 0.00 0.00 47 1019.6
20260509130003 62 48 3.0 10.0 0.00 0.00 0.00 47 1019.7
20260509125503 62 48 4.0 10.0 0.00 0.00 0.00 47 1019.8
20260509125003 62 43 3.0 10.0 0.00 0.00 0.00 47 1020.0
20260509124503 62 33 2.0 8.0 0.00 0.00 0.00 46 1019.7
20260509124003 62 55 2.0 10.0 0.00 0.00 0.00 47 1019.9
20260509123717 62 64 3.0 10.0 0.00 0.00 0.00 48 1020.2
20260509123217 62 69 4.0 12.0 0.00 0.00 0.00 48 1020.1
20260509122503 62 59 3.0 12.0 0.00 0.00 0.00 48 1019.9
20260509122003 61 54 3.0 8.0 0.00 0.00 0.00 48 1020.0
20260509121717 61 53 3.0 8.0 0.00 0.00 0.00 48 1020.1
20260509121003 61 30 3.0 7.0 0.00 0.00 0.00 48 1020.1
20260509120503 60 11 3.0 10.0 0.00 0.00 0.00 48 1020.1
20260509120216 60 19 3.0 10.0 0.00 0.00 0.00 48 1020.2
20260509115503 60 35 2.0 10.0 0.00 0.00 0.00 48 1020.3
20260509115003 60 59 2.0 7.0 0.00 0.00 0.00 48 1020.4
20260509114503 60 61 1.0 8.0 0.00 0.00 0.00 48 1020.4
20260509114003 61 74 2.0 8.0 0.00 0.00 0.00 47 1020.5
20260509113717 61 94 3.0 8.0 0.00 0.00 0.00 47 1020.8
20260509113003 61 128 2.0 7.0 0.00 0.00 0.00 47 1020.5
20260509112503 61 186 1.0 7.0 0.00 0.00 0.00 48 1021.0
20260509112003 61 161 2.0 8.0 0.00 0.00 0.00 48 1020.7
20260509111717 61 151 2.0 8.0 0.00 0.00 0.00 48 1020.8
20260509111003 60 92 3.0 10.0 0.00 0.00 0.00 50 1020.8
20260509110503 60 76 2.0 10.0 0.00 0.00 0.00 50 1020.8
20260509110218 60 56 1.0 10.0 0.00 0.00 0.00 49 1020.9
20260509105503 60 50 2.0 7.0 0.00 0.00 0.00 49 1021.0
20260509105003 59 225 1.0 7.0 0.00 0.00 0.00 50 1020.9
20260509104503 59 216 2.0 7.0 0.00 0.00 0.00 50 1021.0
20260509104003 59 202 2.0 10.0 0.00 0.00 0.00 50 1021.1
20260509103503 58 203 2.0 10.0 0.00 0.00 0.00 52 1021.2
20260509103003 58 196 2.0 10.0 0.00 0.00 0.00 51 1021.3
20260509102503 58 195 2.0 7.0 0.00 0.00 0.00 51 1021.3
20260509102218 58 160 2.0 8.0 0.00 0.00 0.00 51 1021.3